QPF
0.01 0.00 0.00 0.00 0.00 0.01 0.02 0.02 0.04 0.06 0.07 0.07 0.07 0.06 0.05 0.05 0.04 0.04 0.04 0.05 0.05 0.05 0.05 0.04 0.05 0.04 0.04 0.04 0.04 0.05 0.05 0.04 0.04 0.04 0.04 0.03 0.02 0.02 0.02 0.03 0.05 0.06 0.04
0.01 0.01 0.01 0.01 0.01 0.01 0.02 0.03 0.02 0.02 0.02 0.05 0.08 0.08 0.06 0.04 0.04 0.03 0.03 0.04 0.06 0.06 0.04 0.05 0.06 0.05 0.05 0.04 0.04 0.06 0.06 0.05 0.05 0.05 0.05 0.04 0.04 0.02 0.01 0.01 0.02 0.02 0.03
0.01 0.01 0.01 0.01 0.01 0.02 0.02 0.02 0.02 0.02 0.02 0.03 0.06 0.09 0.07 0.05 0.04 0.05 0.05 0.03 0.03 0.05 0.05 0.05 0.06 0.06 0.06 0.05 0.05 0.06 0.09 0.09 0.07 0.05 0.06 0.06 0.06 0.05 0.02 0.01 0.01 0.02 0.03
0.01 0.01 0.00 0.01 0.01 0.01 0.02 0.02 0.03 0.02 0.01 0.02 0.06 0.09 0.08 0.06 0.06 0.06 0.05 0.04 0.02 0.04 0.06 0.05 0.06 0.06 0.06 0.06 0.05 0.05 0.07 0.08 0.07 0.06 0.04 0.04 0.04 0.06 0.05 0.02 0.01 0.02 0.02
0.01 0.01 0.00 0.00 0.01 0.00 0.00 0.01 0.01 0.01 0.01 0.03 0.05 0.05 0.05 0.05 0.06 0.05 0.05 0.04 0.03 0.03 0.04 0.05 0.07 0.06 0.05 0.05 0.05 0.05 0.05 0.05 0.05 0.05 0.04 0.05 0.05 0.04 0.05 0.04 0.03 0.02 0.02
0.01 0.01 0.00 0.00 0.00 0.00 0.00 0.00 0.01 0.01 0.02 0.01 0.01 0.02 0.02 0.03 0.04 0.04 0.05 0.06 0.06 0.05 0.04 0.04 0.05 0.05 0.04 0.04 0.04 0.05 0.05 0.05 0.05 0.05 0.05 0.06 0.07 0.07 0.06 0.05 0.04 0.04 0.04
0.00 0.00 0.00 0.00 0.00 0.01 0.00 0.01 0.01 0.01 0.01 0.01 0.01 0.01 0.02 0.02 0.02 0.03 0.05 0.07 0.07 0.05 0.04 0.05 0.06 0.05 0.03 0.03 0.04 0.05 0.06 0.05 0.04 0.04 0.05 0.06 0.09 0.09 0.08 0.07 0.05 0.05 0.04
0.00 0.00 0.00 0.00 0.01 0.02 0.01 0.01 0.02 0.01 0.01 0.01 0.01 0.01 0.02 0.03 0.03 0.03 0.04 0.06 0.07 0.06 0.06 0.06 0.06 0.05 0.04 0.04 0.04 0.05 0.05 0.05 0.04 0.04 0.06 0.07 0.08 0.08 0.08 0.08 0.07 0.09 0.07
0.01 0.01 0.01 0.01 0.03 0.04 0.03 0.03 0.03 0.02 0.02 0.01 0.02 0.02 0.01 0.02 0.03 0.03 0.04 0.04 0.05 0.06 0.05 0.04 0.06 0.06 0.06 0.06 0.06 0.07 0.06 0.05 0.04 0.04 0.06 0.07 0.07 0.08 0.07 0.08 0.09 0.10 0.10
0.00 0.00 0.01 0.01 0.01 0.02 0.03 0.03 0.03 0.02 0.02 0.01 0.01 0.02 0.03 0.03 0.03 0.04 0.02 0.03 0.04 0.06 0.05 0.07 0.08 0.08 0.06 0.05 0.06 0.06 0.06 0.05 0.06 0.06 0.06 0.05 0.06 0.07 0.08 0.08 0.08 0.09 0.11
0.01 0.01 0.01 0.01 0.00 0.01 0.01 0.02 0.01 0.02 0.04 0.02 0.02 0.02 0.04 0.04 0.03 0.05 0.03 0.04 0.05 0.05 0.06 0.08 0.07 0.06 0.06 0.05 0.05 0.05 0.05 0.04 0.06 0.05 0.04 0.04 0.04 0.05 0.05 0.06 0.07 0.08 0.09
0.01 0.01 0.01 0.01 0.01 0.01 0.01 0.01 0.01 0.01 0.01 0.02 0.02 0.02 0.02 0.03 0.03 0.04 0.05 0.06 0.04 0.04 0.05 0.06 0.06 0.05 0.04 0.04 0.04 0.04 0.05 0.05 0.06 0.06 0.06 0.05 0.04 0.04 0.04 0.04 0.06 0.08 0.09
0.01 0.01 0.01 0.00 0.00 0.00 0.00 0.00 0.01 0.01 0.01 0.02 0.02 0.02 0.02 0.02 0.02 0.02 0.02 0.03 0.03 0.03 0.04 0.04 0.04 0.03 0.03 0.04 0.04 0.04 0.03 0.04 0.05 0.06 0.07 0.07 0.05 0.05 0.05 0.03 0.04 0.05 0.06
0.01 0.02 0.02 0.01 0.01 0.00 0.00 0.00 0.00 0.01 0.02 0.02 0.02 0.02 0.02 0.03 0.02 0.02 0.02 0.02 0.01 0.02 0.02 0.03 0.03 0.03 0.03 0.04 0.05 0.04 0.04 0.04 0.05 0.06 0.05 0.06 0.06 0.06 0.06 0.04 0.05 0.05 0.05
0.01 0.01 0.02 0.02 0.01 0.01 0.00 0.00 0.01 0.01 0.02 0.03 0.02 0.02 0.02 0.03 0.03 0.03 0.03 0.02 0.01 0.02 0.02 0.02 0.02 0.02 0.02 0.03 0.04 0.05 0.04 0.04 0.05 0.05 0.05 0.06 0.06 0.05 0.04 0.04 0.06 0.06 0.06
0.01 0.01 0.01 0.01 0.01 0.01 0.01 0.01 0.01 0.01 0.02 0.03 0.02 0.02 0.02 0.02 0.03 0.03 0.03 0.03 0.02 0.02 0.01 0.01 0.01 0.01 0.01 0.02 0.03 0.04 0.04 0.04 0.04 0.04 0.05 0.05 0.06 0.05 0.04 0.04 0.06 0.06 0.07
0.01 0.00 0.00 0.00 0.01 0.02 0.02 0.02 0.01 0.01 0.01 0.02 0.03 0.02 0.02 0.03 0.02 0.02 0.02 0.02 0.02 0.01 0.01 0.01 0.01 0.01 0.01 0.02 0.02 0.02 0.02 0.03 0.03 0.03 0.04 0.04 0.06 0.07 0.06 0.04 0.04 0.05 0.05
0.00 0.00 0.00 0.00 0.00 0.01 0.02 0.02 0.01 0.01 0.01 0.03 0.03 0.03 0.04 0.04 0.03 0.02 0.02 0.02 0.02 0.02 0.01 0.01 0.01 0.01 0.01 0.01 0.01 0.01 0.01 0.01 0.02 0.02 0.02 0.03 0.04 0.07 0.09 0.07 0.06 0.05 0.05
0.00 0.00 0.00 0.01 0.01 0.01 0.02 0.03 0.03 0.03 0.02 0.02 0.01 0.01 0.02 0.03 0.03 0.03 0.02 0.02 0.02 0.02 0.02 0.01 0.01 0.01 0.01 0.01 0.01 0.01 0.01 0.01 0.01 0.02 0.02 0.03 0.02 0.04 0.08 0.08 0.08 0.07 0.06
0.00 0.00 0.01 0.02 0.02 0.02 0.03 0.03 0.03 0.03 0.02 0.01 0.01 0.01 0.01 0.01 0.02 0.02 0.02 0.01 0.01 0.01 0.01 0.01 0.01 0.01 0.01 0.01 0.01 0.01 0.01 0.01 0.01 0.01 0.02 0.03 0.02 0.02 0.04 0.04 0.05 0.06 0.06
0.01 0.01 0.02 0.03 0.03 0.03 0.03 0.03 0.02 0.02 0.01 0.01 0.00 0.00 0.01 0.01 0.01 0.01 0.02 0.02 0.02 0.02 0.02 0.02 0.02 0.01 0.01 0.01 0.01 0.01 0.02 0.01 0.01 0.01 0.02 0.01 0.01 0.02 0.02 0.03 0.03 0.03 0.04
0.01 0.01 0.02 0.03 0.04 0.04 0.03 0.02 0.02 0.01 0.01 0.00 0.00 0.00 0.01 0.01 0.01 0.01 0.02 0.02 0.01 0.01 0.02 0.03 0.03 0.03 0.02 0.02 0.02 0.02 0.02 0.02 0.02 0.02 0.01 0.01 0.01 0.02 0.02 0.03 0.03 0.04 0.04
0.01 0.01 0.01 0.02 0.05 0.06 0.03 0.02 0.02 0.02 0.01 0.01 0.01 0.01 0.01 0.01 0.01 0.01 0.01 0.01 0.01 0.02 0.03 0.03 0.04 0.04 0.03 0.03 0.03 0.03 0.02 0.03 0.03 0.03 0.03 0.03 0.02 0.02 0.02 0.02 0.03 0.03 0.03
0.02 0.02 0.01 0.03 0.07 0.07 0.04 0.03 0.03 0.02 0.02 0.01 0.01 0.01 0.02 0.01 0.01 0.02 0.02 0.02 0.02 0.03 0.03 0.04 0.04 0.04 0.03 0.02 0.03 0.05 0.04 0.03 0.04 0.04 0.03 0.03 0.04 0.03 0.02 0.01 0.01 0.02 0.02
0.02 0.02 0.02 0.04 0.06 0.06 0.04 0.04 0.03 0.03 0.03 0.02 0.01 0.01 0.01 0.02 0.02 0.02 0.03 0.03 0.03 0.03 0.03 0.03 0.03 0.03 0.02 0.02 0.03 0.04 0.04 0.04 0.04 0.04 0.04 0.03 0.03 0.04 0.02 0.02 0.02 0.02 0.02
0.01 0.01 0.03 0.04 0.04 0.04 0.03 0.03 0.03 0.02 0.02 0.02 0.02 0.01 0.01 0.01 0.01 0.01 0.02 0.02 0.02 0.03 0.03 0.03 0.03 0.02 0.01 0.01 0.01 0.02 0.03 0.04 0.04 0.04 0.03 0.03 0.03 0.03 0.02 0.02 0.02 0.02 0.02
MSLP
1006.53 1006.32 1006.19 1006.13 1006.16 1006.29 1006.52 1006.84 1007.22 1007.63 1008.04 1008.40 1008.70 1008.91 1009.03 1009.08 1009.09 1009.08 1009.07 1009.08 1009.12 1009.17 1009.24 1009.31 1009.38 1009.44 1009.49 1009.55 1009.62 1009.69 1009.77 1009.83 1009.86 1009.83 1009.74 1009.56 1009.32 1009.03 1008.72 1008.43 1008.21 1008.08 1008.07
1006.34 1006.07 1005.87 1005.74 1005.71 1005.78 1005.95 1006.22 1006.58 1006.99 1007.40 1007.79 1008.12 1008.37 1008.54 1008.64 1008.69 1008.72 1008.74 1008.77 1008.82 1008.88 1008.95 1009.03 1009.10 1009.16 1009.22 1009.28 1009.36 1009.46 1009.56 1009.66 1009.73 1009.76 1009.72 1009.60 1009.40 1009.14 1008.85 1008.56 1008.32 1008.16 1008.10
1006.07 1005.77 1005.53 1005.36 1005.27 1005.28 1005.39 1005.61 1005.93 1006.31 1006.72 1007.12 1007.48 1007.78 1008.00 1008.16 1008.27 1008.34 1008.40 1008.47 1008.54 1008.62 1008.70 1008.77 1008.83 1008.88 1008.94 1008.99 1009.07 1009.17 1009.29 1009.41 1009.53 1009.61 1009.62 1009.57 1009.43 1009.22 1008.96 1008.69 1008.44 1008.26 1008.16
1005.75 1005.45 1005.20 1005.01 1004.89 1004.85 1004.91 1005.07 1005.34 1005.68 1006.06 1006.46 1006.83 1007.16 1007.44 1007.65 1007.81 1007.95 1008.06 1008.16 1008.27 1008.37 1008.46 1008.53 1008.59 1008.63 1008.67 1008.72 1008.78 1008.88 1009.00 1009.15 1009.30 1009.42 1009.50 1009.51 1009.43 1009.28 1009.06 1008.81 1008.57 1008.36 1008.22
1005.41 1005.16 1004.94 1004.75 1004.61 1004.54 1004.54 1004.64 1004.84 1005.12 1005.46 1005.82 1006.19 1006.54 1006.84 1007.11 1007.32 1007.51 1007.67 1007.82 1007.96 1008.09 1008.20 1008.28 1008.35 1008.39 1008.42 1008.46 1008.52 1008.62 1008.75 1008.91 1009.08 1009.24 1009.37 1009.43 1009.41 1009.30 1009.12 1008.90 1008.65 1008.42 1008.25
1005.13 1004.95 1004.78 1004.62 1004.48 1004.38 1004.32 1004.35 1004.46 1004.65 1004.91 1005.23 1005.56 1005.90 1006.22 1006.51 1006.77 1007.00 1007.21 1007.40 1007.58 1007.74 1007.88 1007.99 1008.08 1008.14 1008.18 1008.23 1008.30 1008.39 1008.53 1008.70 1008.89 1009.07 1009.22 1009.32 1009.33 1009.26 1009.11 1008.90 1008.66 1008.42 1008.22
1004.96 1004.86 1004.76 1004.64 1004.50 1004.36 1004.24 1004.16 1004.17 1004.26 1004.42 1004.66 1004.93 1005.24 1005.55 1005.85 1006.13 1006.40 1006.65 1006.89 1007.11 1007.31 1007.49 1007.64 1007.76 1007.86 1007.94 1008.01 1008.10 1008.21 1008.35 1008.53 1008.72 1008.90 1009.06 1009.16 1009.19 1009.13 1008.99 1008.79 1008.55 1008.31 1008.10
1004.95 1004.94 1004.89 1004.79 1004.63 1004.43 1004.23 1004.05 1003.93 1003.89 1003.94 1004.08 1004.29 1004.55 1004.83 1005.13 1005.44 1005.73 1006.02 1006.29 1006.56 1006.81 1007.04 1007.25 1007.42 1007.58 1007.71 1007.83 1007.94 1008.08 1008.22 1008.39 1008.56 1008.73 1008.86 1008.95 1008.96 1008.90 1008.75 1008.55 1008.32 1008.08 1007.87
1005.11 1005.14 1005.12 1005.01 1004.81 1004.54 1004.23 1003.93 1003.68 1003.51 1003.45 1003.49 1003.62 1003.83 1004.10 1004.40 1004.72 1005.05 1005.37 1005.69 1006.01 1006.31 1006.60 1006.87 1007.12 1007.33 1007.53 1007.70 1007.86 1008.01 1008.16 1008.31 1008.44 1008.56 1008.65 1008.69 1008.66 1008.57 1008.40 1008.20 1007.96 1007.74 1007.54
1005.38 1005.41 1005.37 1005.22 1004.95 1004.58 1004.16 1003.73 1003.35 1003.07 1002.91 1002.87 1002.95 1003.14 1003.40 1003.72 1004.07 1004.44 1004.80 1005.17 1005.54 1005.91 1006.26 1006.60 1006.91 1007.20 1007.46 1007.68 1007.88 1008.04 1008.18 1008.30 1008.38 1008.44 1008.45 1008.42 1008.33 1008.19 1008.00 1007.79 1007.56 1007.35 1007.19
1005.65 1005.64 1005.54 1005.31 1004.94 1004.47 1003.93 1003.40 1002.92 1002.55 1002.32 1002.24 1002.31 1002.51 1002.81 1003.17 1003.57 1003.99 1004.42 1004.85 1005.28 1005.70 1006.12 1006.52 1006.91 1007.26 1007.57 1007.84 1008.06 1008.23 1008.34 1008.41 1008.42 1008.40 1008.32 1008.21 1008.05 1007.86 1007.64 1007.41 1007.20 1007.02 1006.89
1005.81 1005.71 1005.52 1005.18 1004.72 1004.15 1003.52 1002.91 1002.37 1001.96 1001.72 1001.66 1001.76 1002.01 1002.38 1002.82 1003.30 1003.80 1004.30 1004.80 1005.29 1005.77 1006.24 1006.70 1007.14 1007.54 1007.90 1008.20 1008.42 1008.58 1008.66 1008.67 1008.61 1008.50 1008.33 1008.13 1007.91 1007.66 1007.42 1007.19 1006.99 1006.84 1006.76
1005.74 1005.54 1005.24 1004.81 1004.26 1003.62 1002.94 1002.29 1001.75 1001.36 1001.16 1001.16 1001.35 1001.70 1002.16 1002.71 1003.29 1003.89 1004.47 1005.03 1005.58 1006.12 1006.64 1007.14 1007.61 1008.05 1008.43 1008.74 1008.96 1009.10 1009.14 1009.09 1008.96 1008.77 1008.53 1008.26 1007.97 1007.69 1007.44 1007.21 1007.04 1006.92 1006.87
1005.38 1005.08 1004.69 1004.19 1003.59 1002.92 1002.24 1001.61 1001.12 1000.80 1000.69 1000.80 1001.12 1001.60 1002.19 1002.86 1003.55 1004.24 1004.90 1005.53 1006.13 1006.70 1007.25 1007.77 1008.27 1008.72 1009.11 1009.42 1009.64 1009.75 1009.75 1009.66 1009.48 1009.23 1008.93 1008.62 1008.30 1008.00 1007.74 1007.53 1007.38 1007.30 1007.27
1004.74 1004.36 1003.92 1003.39 1002.79 1002.14 1001.51 1000.96 1000.57 1000.37 1000.40 1000.65 1001.11 1001.73 1002.45 1003.24 1004.04 1004.81 1005.54 1006.21 1006.84 1007.43 1007.99 1008.52 1009.02 1009.47 1009.86 1010.17 1010.38 1010.48 1010.46 1010.34 1010.13 1009.86 1009.54 1009.21 1008.89 1008.60 1008.35 1008.17 1008.04 1007.98 1007.97
1003.90 1003.50 1003.05 1002.54 1001.98 1001.41 1000.88 1000.45 1000.19 1000.14 1000.32 1000.72 1001.32 1002.08 1002.92 1003.81 1004.69 1005.52 1006.28 1006.98 1007.62 1008.21 1008.77 1009.29 1009.78 1010.22 1010.61 1010.92 1011.12 1011.22 1011.21 1011.09 1010.89 1010.62 1010.31 1009.99 1009.69 1009.43 1009.22 1009.06 1008.96 1008.92 1008.91
1003.01 1002.62 1002.22 1001.78 1001.31 1000.85 1000.45 1000.17 1000.06 1000.16 1000.49 1001.03 1001.76 1002.62 1003.55 1004.51 1005.43 1006.29 1007.07 1007.77 1008.39 1008.97 1009.50 1010.00 1010.47 1010.91 1011.30 1011.61 1011.83 1011.95 1011.96 1011.86 1011.69 1011.45 1011.18 1010.91 1010.65 1010.42 1010.25 1010.13 1010.05 1010.01 1009.99
1002.25 1001.92 1001.59 1001.25 1000.89 1000.57 1000.31 1000.17 1000.21 1000.46 1000.91 1001.57 1002.39 1003.32 1004.30 1005.29 1006.23 1007.08 1007.84 1008.52 1009.11 1009.65 1010.16 1010.64 1011.09 1011.52 1011.91 1012.23 1012.48 1012.63 1012.68 1012.63 1012.50 1012.32 1012.10 1011.88 1011.67 1011.49 1011.35 1011.24 1011.18 1011.13 1011.09
1001.80 1001.55 1001.30 1001.06 1000.82 1000.62 1000.49 1000.49 1000.66 1001.01 1001.56 1002.29 1003.17 1004.13 1005.14 1006.12 1007.04 1007.86 1008.59 1009.23 1009.79 1010.29 1010.77 1011.22 1011.67 1012.09 1012.49 1012.83 1013.10 1013.29 1013.38 1013.38 1013.31 1013.18 1013.01 1012.84 1012.66 1012.52 1012.40 1012.31 1012.23 1012.17 1012.11
1001.77 1001.59 1001.42 1001.26 1001.12 1001.02 1000.99 1001.09 1001.35 1001.78 1002.39 1003.16 1004.06 1005.03 1006.02 1006.97 1007.86 1008.65 1009.34 1009.93 1010.46 1010.94 1011.39 1011.83 1012.27 1012.69 1013.09 1013.45 1013.75 1013.96 1014.09 1014.13 1014.09 1014.00 1013.87 1013.72 1013.57 1013.44 1013.32 1013.23 1013.14 1013.05 1012.95
1002.22 1002.08 1001.96 1001.86 1001.77 1001.73 1001.77 1001.93 1002.24 1002.71 1003.35 1004.13 1005.02 1005.97 1006.93 1007.85 1008.70 1009.45 1010.11 1010.68 1011.18 1011.64 1012.08 1012.52 1012.96 1013.38 1013.79 1014.15 1014.46 1014.68 1014.82 1014.87 1014.85 1014.76 1014.64 1014.49 1014.35 1014.20 1014.08 1013.96 1013.84 1013.72 1013.59
1003.12 1003.00 1002.89 1002.80 1002.74 1002.72 1002.78 1002.96 1003.28 1003.76 1004.40 1005.16 1006.03 1006.94 1007.87 1008.75 1009.57 1010.29 1010.93 1011.49 1011.99 1012.45 1012.90 1013.34 1013.78 1014.20 1014.60 1014.96 1015.25 1015.46 1015.58 1015.61 1015.56 1015.46 1015.31 1015.14 1014.97 1014.80 1014.65 1014.50 1014.36 1014.21 1014.04
1004.40 1004.26 1004.13 1004.02 1003.94 1003.91 1003.96 1004.12 1004.43 1004.89 1005.50 1006.23 1007.06 1007.94 1008.82 1009.67 1010.46 1011.18 1011.81 1012.38 1012.89 1013.37 1013.83 1014.28 1014.72 1015.14 1015.52 1015.84 1016.10 1016.26 1016.33 1016.31 1016.21 1016.06 1015.87 1015.66 1015.45 1015.25 1015.06 1014.88 1014.71 1014.54 1014.36
1005.92 1005.75 1005.59 1005.44 1005.31 1005.25 1005.26 1005.39 1005.66 1006.08 1006.64 1007.33 1008.11 1008.94 1009.78 1010.60 1011.37 1012.08 1012.72 1013.31 1013.85 1014.35 1014.83 1015.29 1015.73 1016.13 1016.48 1016.76 1016.95 1017.05 1017.04 1016.95 1016.78 1016.56 1016.31 1016.05 1015.80 1015.57 1015.36 1015.17 1014.99 1014.80 1014.61
1007.57 1007.37 1007.16 1006.97 1006.80 1006.69 1006.66 1006.74 1006.96 1007.33 1007.83 1008.45 1009.17 1009.94 1010.73 1011.52 1012.27 1012.97 1013.62 1014.23 1014.80 1015.33 1015.83 1016.30 1016.73 1017.11 1017.41 1017.63 1017.75 1017.76 1017.67 1017.49 1017.24 1016.96 1016.65 1016.35 1016.08 1015.84 1015.62 1015.43 1015.26 1015.08 1014.88
1009.21 1009.00 1008.77 1008.55 1008.35 1008.20 1008.13 1008.17 1008.33 1008.63 1009.06 1009.60 1010.24 1010.94 1011.67 1012.40 1013.12 1013.81 1014.47 1015.09 1015.67 1016.23 1016.74 1017.22 1017.63 1017.98 1018.23 1018.38 1018.42 1018.35 1018.18 1017.93 1017.61 1017.27 1016.93 1016.62 1016.34 1016.11 1015.91 1015.75 1015.60 1015.44 1015.25
Thickness
5786 5785 5782 5780 5777 5773 5769 5766 5763 5761 5759 5757 5756 5754 5752 5752 5751 5750 5747 5745 5745 5744 5743 5745 5743 5743 5744 5742 5742 5741 5740 5740 5740 5739 5739 5742 5743 5742 5741 5740 5740 5738 5736
5782 5780 5778 5777 5774 5770 5767 5764 5761 5759 5757 5756 5754 5753 5752 5751 5750 5749 5746 5744 5743 5742 5743 5741 5742 5741 5740 5739 5739 5737 5738 5739 5739 5735 5733 5733 5736 5738 5741 5739 5738 5737 5736
5779 5777 5775 5774 5772 5768 5766 5764 5760 5758 5755 5754 5754 5752 5749 5748 5747 5746 5745 5744 5742 5741 5740 5739 5739 5738 5738 5738 5736 5735 5733 5733 5735 5735 5732 5728 5726 5731 5737 5736 5736 5734 5734
5780 5777 5775 5772 5770 5768 5766 5763 5759 5756 5753 5752 5751 5748 5745 5743 5743 5744 5744 5742 5741 5740 5739 5738 5737 5736 5736 5734 5734 5735 5733 5731 5731 5732 5731 5730 5729 5725 5727 5732 5734 5733 5732
5779 5776 5774 5772 5770 5768 5765 5761 5756 5753 5751 5749 5748 5745 5744 5743 5743 5742 5740 5739 5739 5738 5737 5736 5734 5733 5733 5732 5731 5730 5729 5730 5729 5729 5728 5727 5726 5726 5722 5722 5726 5729 5731
5778 5776 5774 5771 5768 5767 5763 5759 5754 5750 5748 5746 5745 5742 5740 5739 5738 5737 5736 5736 5737 5736 5735 5733 5732 5731 5731 5729 5728 5727 5727 5726 5725 5726 5726 5724 5722 5721 5721 5720 5720 5722 5725
5775 5772 5770 5768 5765 5763 5760 5757 5751 5747 5745 5743 5741 5739 5737 5736 5734 5734 5733 5732 5733 5733 5731 5731 5729 5728 5727 5726 5725 5724 5723 5723 5721 5721 5722 5722 5721 5721 5720 5718 5718 5718 5721
5772 5769 5768 5766 5763 5760 5757 5753 5749 5745 5742 5740 5738 5736 5734 5735 5734 5731 5731 5730 5730 5730 5728 5727 5726 5725 5724 5724 5722 5722 5721 5719 5718 5718 5717 5718 5719 5718 5717 5716 5714 5712 5714
5768 5766 5764 5762 5760 5757 5754 5750 5746 5742 5739 5737 5734 5732 5730 5730 5729 5728 5727 5727 5725 5725 5724 5724 5722 5721 5720 5719 5719 5718 5717 5716 5716 5716 5715 5715 5716 5715 5715 5714 5713 5708 5705
5764 5761 5759 5757 5756 5753 5749 5746 5743 5739 5736 5734 5731 5730 5727 5726 5725 5724 5722 5720 5719 5719 5719 5719 5718 5717 5716 5715 5715 5715 5713 5712 5712 5711 5710 5709 5712 5711 5711 5710 5710 5708 5704
5759 5756 5754 5753 5751 5748 5745 5741 5738 5735 5731 5729 5727 5725 5723 5722 5721 5718 5717 5715 5713 5713 5713 5713 5713 5712 5711 5710 5709 5710 5709 5708 5707 5707 5707 5705 5705 5706 5707 5706 5706 5705 5703
5757 5755 5752 5749 5746 5742 5740 5737 5735 5731 5728 5725 5722 5719 5718 5716 5715 5713 5712 5710 5708 5707 5707 5707 5706 5706 5705 5704 5704 5703 5703 5703 5701 5701 5701 5700 5701 5699 5700 5700 5700 5700 5699
5752 5751 5748 5744 5740 5738 5736 5733 5730 5727 5725 5721 5718 5714 5712 5710 5708 5707 5706 5704 5702 5701 5701 5700 5699 5698 5698 5697 5697 5697 5697 5696 5696 5694 5694 5694 5694 5693 5694 5694 5695 5695 5696
5745 5744 5742 5739 5736 5733 5732 5729 5726 5723 5720 5717 5713 5709 5707 5704 5702 5701 5699 5697 5696 5695 5694 5693 5692 5691 5691 5690 5690 5690 5690 5690 5689 5688 5688 5687 5687 5687 5687 5689 5688 5689 5688
5740 5738 5736 5734 5731 5728 5726 5724 5721 5719 5716 5713 5709 5706 5703 5700 5697 5694 5692 5690 5689 5688 5687 5686 5686 5685 5684 5683 5682 5682 5683 5683 5682 5682 5682 5681 5679 5677 5678 5681 5681 5682 5681
5735 5734 5732 5730 5726 5724 5722 5719 5717 5714 5712 5708 5704 5701 5698 5695 5692 5689 5686 5684 5682 5681 5680 5679 5679 5678 5677 5671 5670 5671 5675 5675 5675 5675 5675 5675 5674 5671 5669 5669 5670 5671 5673
5732 5730 5728 5725 5722 5720 5717 5714 5712 5710 5706 5702 5700 5697 5693 5689 5687 5684 5681 5678 5675 5674 5673 5672 5671 5670 5666 5662 5661 5661 5665 5668 5668 5667 5667 5669 5669 5666 5666 5665 5663 5664 5663
5727 5725 5723 5721 5718 5716 5712 5709 5707 5704 5701 5698 5695 5692 5688 5684 5681 5678 5674 5671 5669 5667 5665 5664 5663 5661 5658 5655 5654 5654 5658 5660 5660 5660 5660 5659 5659 5658 5656 5659 5660 5660 5661
5722 5720 5718 5715 5712 5709 5707 5703 5700 5698 5695 5692 5689 5686 5683 5679 5676 5672 5668 5665 5662 5660 5658 5657 5655 5654 5651 5647 5646 5645 5652 5653 5653 5653 5653 5652 5651 5646 5646 5650 5652 5653 5654
5716 5713 5711 5709 5705 5703 5700 5696 5694 5692 5689 5687 5684 5681 5677 5673 5670 5665 5661 5659 5656 5654 5652 5650 5648 5647 5645 5640 5639 5638 5646 5646 5647 5648 5647 5642 5641 5638 5638 5642 5644 5645 5647
5707 5705 5703 5700 5697 5696 5693 5690 5688 5686 5685 5682 5678 5674 5671 5667 5664 5660 5655 5652 5649 5647 5645 5644 5642 5640 5638 5634 5632 5631 5635 5638 5640 5642 5642 5639 5633 5631 5631 5632 5636 5636 5636
5697 5696 5694 5691 5690 5688 5686 5683 5680 5680 5678 5675 5671 5667 5664 5661 5659 5653 5649 5646 5642 5640 5638 5637 5635 5634 5631 5628 5626 5623 5623 5624 5628 5631 5633 5630 5625 5623 5623 5625 5626 5626 5627
5688 5687 5685 5682 5681 5679 5678 5675 5674 5673 5671 5667 5663 5660 5656 5653 5651 5647 5643 5640 5636 5635 5634 5632 5630 5628 5627 5623 5619 5616 5615 5615 5617 5621 5619 5618 5617 5616 5619 5618 5618 5620 5625
5678 5677 5676 5673 5671 5670 5670 5668 5667 5665 5662 5659 5655 5652 5649 5646 5643 5640 5638 5636 5632 5629 5627 5625 5624 5622 5620 5618 5616 5614 5612 5609 5611 5613 5611 5610 5611 5611 5612 5613 5615 5617 5619
5668 5668 5666 5664 5662 5661 5660 5660 5658 5656 5653 5650 5647 5645 5643 5640 5636 5633 5630 5628 5625 5622 5618 5617 5616 5613 5611 5607 5602 5603 5604 5604 5604 5602 5605 5608 5610 5611 5612 5612 5612 5612 5613
5659 5658 5656 5655 5654 5653 5651 5650 5649 5646 5643 5641 5639 5638 5636 5633 5630 5627 5623 5617 5615 5611 5606 5603 5602 5602 5599 5595 5593 5592 5591 5590 5590 5592 5599 5602 5603 5604 5605 5606 5607 5606 5606